EA4TN Weather Reports


Display with metric or nautical units.
time (UTC)temp
F
wind
direction
speed
MPH
gust
MPH
rain 1hr
in
rain 24hr
in
rain mn
in
humidity
%
barometer
mb
20260905093555 87 30 1.0 3.0 0.00 0.00 0.00 33 1023.2
20260905092515 86 43 1.0 4.0 0.00 0.00 0.00 33 1023.0
20260905091515 84 40 2.0 5.0 0.00 0.00 0.00 34 1022.8
20260905090555 83 47 4.0 8.0 0.00 0.00 0.00 34 1022.6
20260905085515 82 56 3.0 7.0 0.00 0.00 0.00 34 1022.4
20260905084515 82 54 3.0 6.0 0.00 0.00 0.00 34 1022.4
20260905083515 82 49 3.0 7.0 0.00 0.00 0.00 35 1022.4
20260905082515 82 66 3.0 5.0 0.00 0.00 0.00 35 1022.5
20260905081516 81 56 3.0 6.0 0.00 0.00 0.00 35 1022.5
20260905080516 81 57 1.0 4.0 0.00 0.00 0.00 37 1022.5
20260905075515 80 56 1.0 2.0 0.00 0.00 0.00 37 1022.5
20260905074516 79 0.0 1.0 0.00 0.00 0.00 38 1022.6
20260905073516 78 46 1.0 5.0 0.00 0.00 0.00 38 1022.3
20260905072555 77 49 2.0 5.0 0.00 0.00 0.00 38 1022.2
20260905071515 77 47 4.0 6.0 0.00 0.00 0.00 39 1022.2
20260905070516 77 46 4.0 6.0 0.00 0.00 0.00 38 1022.1
20260905065515 77 39 2.0 6.0 0.00 0.00 0.00 38 1022.1
20260905064516 77 62 3.0 6.0 0.00 0.00 0.00 37 1022.2
20260905063516 77 50 4.0 6.0 0.00 0.00 0.00 37 1022.0
20260905062515 76 69 2.0 5.0 0.00 0.00 0.00 37 1021.8
20260905061555 77 53 2.0 4.0 0.00 0.00 0.00 37 1022.0
20260905060516 77 76 2.0 3.0 0.00 0.00 0.00 37 1022.0
20260905055515 77 72 2.0 4.0 0.00 0.00 0.00 37 1021.9
20260905054515 77 58 1.0 2.0 0.00 0.00 0.00 39 1022.0
20260905053516 78 58 1.0 2.0 0.00 0.00 0.00 38 1022.2
20260905052556 78 58 1.0 2.0 0.00 0.00 0.00 38 1022.2
20260905051515 77 53 1.0 3.0 0.00 0.00 0.00 40 1021.9
20260905050515 78 0.0 0.0 0.00 0.00 0.00 40 1021.8
20260905045515 78 0.0 0.0 0.00 0.00 0.00 39 1021.8
20260905044516 79 0.0 0.0 0.00 0.00 0.00 37 1021.7
20260905043516 80 53 0.0 2.0 0.00 0.00 0.00 36 1021.7
20260905042516 80 0.0 0.0 0.00 0.00 0.00 36 1021.7
20260905041515 80 53 1.0 2.0 0.00 0.00 0.00 35 1021.7
20260905035516 81 72 3.0 6.0 0.00 0.00 0.00 35 1021.5
20260905034516 80 79 2.0 3.0 0.00 0.00 0.00 36 1021.6
20260905033555 80 79 1.0 2.0 0.00 0.00 0.00 35 1021.6
20260905032515 80 0.0 2.0 0.00 0.00 0.00 34 1021.7
20260905031555 80 79 2.0 3.0 0.00 0.00 0.00 33 1021.7
20260905030515 80 52 2.0 4.0 0.00 0.00 0.00 33 1021.6
20260905025516 80 52 2.0 4.0 0.00 0.00 0.00 32 1021.7
20260905024516 80 66 3.0 5.0 0.00 0.00 0.00 31 1021.6
20260905023516 80 56 3.0 6.0 0.00 0.00 0.00 31 1021.7
20260905022516 81 71 3.0 7.0 0.00 0.00 0.00 30 1021.8
20260905021516 81 77 4.0 7.0 0.00 0.00 0.00 30 1021.8
20260905020516 81 69 3.0 6.0 0.00 0.00 0.00 30 1021.8
20260905015516 81 56 3.0 6.0 0.00 0.00 0.00 30 1021.9
20260905014516 80 45 2.0 3.0 0.00 0.00 0.00 31 1021.8
20260905013516 81 47 0.0 1.0 0.00 0.00 0.00 30 1021.9
20260905012516 81 0.0 0.0 0.00 0.00 0.00 29 1021.8
20260905011556 81 0.0 1.0 0.00 0.00 0.00 28 1021.9
20260905010516 82 47 0.0 3.0 0.00 0.00 0.00 27 1022.0
20260905005516 83 70 2.0 5.0 0.00 0.00 0.00 27 1022.0
20260905004516 83 62 3.0 6.0 0.00 0.00 0.00 26 1021.9
20260905003516 82 87 3.0 5.0 0.00 0.00 0.00 25 1021.9
20260905002516 83 86 3.0 5.0 0.00 0.00 0.00 24 1021.9
20260905001516 83 66 4.0 6.0 0.00 0.00 0.00 24 1021.9
20260905000516 83 98 4.0 6.0 0.00 0.00 0.00 24 1021.9
20260904235515 83 80 3.0 6.0 0.00 0.00 0.00 25 1021.8
20260904234555 83 56 4.0 8.0 0.00 0.00 0.00 26 1021.6
20260904233515 83 54 5.0 8.0 0.00 0.00 0.00 25 1021.6
20260904232515 83 76 3.0 4.0 0.00 0.00 0.00 25 1021.6
20260904231555 83 77 2.0 5.0 0.00 0.00 0.00 24 1021.6
20260904230515 83 51 2.0 4.0 0.00 0.00 0.00 25 1021.6
20260904225516 83 58 2.0 6.0 0.00 0.00 0.00 26 1021.6
20260904224515 83 54 3.0 8.0 0.00 0.00 0.00 26 1021.5
20260904223515 83 79 1.0 4.0 0.00 0.00 0.00 26 1021.3
20260904222515 84 0.0 2.0 0.00 0.00 0.00 25 1021.3
20260904221515 85 79 1.0 2.0 0.00 0.00 0.00 25 1021.3
20260904220516 85 79 1.0 2.0 0.00 0.00 0.00 23 1021.3
20260904215555 86 79 1.0 2.0 0.00 0.00 0.00 23 1021.4
20260904214516 86 79 2.0 3.0 0.00 0.00 0.00 23 1021.3
20260904213515 86 66 2.0 7.0 0.00 0.00 0.00 23 1021.3
20260904212515 87 49 5.0 7.0 0.00 0.00 0.00 23 1021.4
20260904211555 87 49 5.0 7.0 0.00 0.00 0.00 22 1021.1
20260904210515 87 46 4.0 6.0 0.00 0.00 0.00 22 1021.0
20260904205516 88 248 2.0 3.0 0.00 0.00 0.00 22 1021.0
20260904204516 87 248 1.0 3.0 0.00 0.00 0.00 22 1020.7
20260904203516 88 248 0.0 2.0 0.00 0.00 0.00 23 1020.6
20260904202555 88 248 1.0 2.0 0.00 0.00 0.00 22 1020.5
20260904201515 87 248 1.0 1.0 0.00 0.00 0.00 22 1020.3
20260904200515 87 248 1.0 1.0 0.00 0.00 0.00 22 1020.2
20260904195516 88 0.0 0.0 0.00 0.00 0.00 23 1020.2
20260904194516 88 0.0 0.0 0.00 0.00 0.00 24 1019.9
20260904193516 89 0.0 0.0 0.00 0.00 0.00 21 1020.0
20260904192516 89 0.0 0.0 0.00 0.00 0.00 22 1019.9
20260904191515 90 0.0 0.0 0.00 0.00 0.00 21 1019.7
20260904190556 90 0.0 0.0 0.00 0.00 0.00 22 1019.7
20260904185515 90 0.0 0.0 0.00 0.00 0.00 22 1019.6
20260904184556 91 0.0 0.0 0.00 0.00 0.00 23 1019.6
20260904183516 93 0.0 0.0 0.00 0.00 0.00 20 1019.8
20260904182556 94 0.0 0.0 0.00 0.00 0.00 20 1020.0
20260904181515 96 0.0 0.0 0.00 0.00 0.00 17 1020.1
20260904180515 97 0.0 0.0 0.00 0.00 0.00 16 1020.2
20260904175516 98 248 0.0 4.0 0.00 0.00 0.00 15 1020.2
20260904174555 99 284 1.0 2.0 0.00 0.00 0.00 15 1020.3
20260904173516 100 285 1.0 5.0 0.00 0.00 0.00 14 1020.4
20260904172516 100 238 1.0 4.0 0.00 0.00 0.00 14 1020.4
20260904171516 100 255 1.0 3.0 0.00 0.00 0.00 14 1020.6
20260904170515 99 270 1.0 4.0 0.00 0.00 0.00 14 1020.4
20260904165516 98 271 1.0 3.0 0.00 0.00 0.00 16 1020.4
20260904164515 98 247 1.0 4.0 0.00 0.00 0.00 15 1020.3
20260904163515 98 250 2.0 5.0 0.00 0.00 0.00 15 1020.5
20260904162516 99 241 2.0 5.0 0.00 0.00 0.00 15 1020.6
20260904161516 99 239 3.0 5.0 0.00 0.00 0.00 14 1020.7
20260904160515 99 269 2.0 5.0 0.00 0.00 0.00 14 1020.7
20260904155515 99 269 3.0 6.0 0.00 0.00 0.00 14 1020.7
20260904154516 100 259 2.0 5.0 0.00 0.00 0.00 14 1020.8
20260904153556 100 278 2.0 4.0 0.00 0.00 0.00 14 1020.9
20260904152516 99 291 2.0 5.0 0.00 0.00 0.00 13 1020.9
20260904151516 100 251 2.0 6.0 0.00 0.00 0.00 13 1021.2
20260904150516 100 281 2.0 4.0 0.00 0.00 0.00 14 1021.3
20260904145516 100 289 2.0 4.0 0.00 0.00 0.00 13 1021.3
20260904144516 100 283 2.0 5.0 0.00 0.00 0.00 13 1021.6
20260904143516 100 282 2.0 4.0 0.00 0.00 0.00 13 1021.6
20260904142516 99 275 2.0 5.0 0.00 0.00 0.00 14 1021.7
20260904141616 99 278 2.0 4.0 0.00 0.00 0.00 13 1021.9
20260904140515 100 294 1.0 6.0 0.00 0.00 0.00 13 1022.0
20260904135515 100 296 3.0 6.0 0.00 0.00 0.00 13 1022.2
20260904134516 99 283 3.0 7.0 0.00 0.00 0.00 13 1022.4
20260904133515 99 277 3.0 8.0 0.00 0.00 0.00 14 1022.5
20260904132516 98 276 3.0 6.0 0.00 0.00 0.00 14 1022.4
20260904131516 98 289 2.0 5.0 0.00 0.00 0.00 14 1022.7
20260904130516 98 22 3.0 6.0 0.00 0.00 0.00 15 1022.9
20260904125516 99 42 1.0 6.0 0.00 0.00 0.00 15 1023.0
20260904124516 98 227 2.0 4.0 0.00 0.00 0.00 15 1023.1
20260904123516 98 182 1.0 3.0 0.00 0.00 0.00 14 1023.2
20260904122516 97 254 2.0 5.0 0.00 0.00 0.00 15 1023.3
20260904121516 95 276 1.0 3.0 0.00 0.00 0.00 16 1023.3
20260904120516 95 281 2.0 4.0 0.00 0.00 0.00 17 1023.4
20260904115556 95 316 2.0 3.0 0.00 0.00 0.00 16 1023.6
20260904114516 95 292 1.0 3.0 0.00 0.00 0.00 17 1023.8
20260904113516 94 249 1.0 2.0 0.00 0.00 0.00 19 1023.8
20260904112516 92 249 1.0 3.0 0.00 0.00 0.00 19 1023.8
20260904111556 92 267 1.0 3.0 0.00 0.00 0.00 19 1024.1
20260904110516 92 260 1.0 3.0 0.00 0.00 0.00 20 1024.3
20260904105556 91 179 1.0 2.0 0.00 0.00 0.00 20 1024.2
20260904104516 90 189 2.0 3.0 0.00 0.00 0.00 21 1024.4
20260904103516 88 261 1.0 3.0 0.00 0.00 0.00 22 1024.5
20260904102516 87 274 2.0 4.0 0.00 0.00 0.00 22 1024.5
20260904101516 86 269 1.0 4.0 0.00 0.00 0.00 23 1024.6
20260904100516 85 274 3.0 4.0 0.00 0.00 0.00 24 1024.7
20260904095516 85 269 1.0 4.0 0.00 0.00 0.00 24 1024.8
20260904094516 84 274 1.0 3.0 0.00 0.00 0.00 25 1024.7